Theta_e
318 318 319 319 318 316 315 314 313 313 315 319 318 315 315 316 317 317 311 319 323 326 327 326 325 323 322 320 324 325 325 324 321 323 324 328 330 325 329 330 329 324 325 329 328 329 332 327 328 329 329 329 331 334
317 319 318 318 316 315 314 314 313 314 316 319 319 317 316 317 317 315 313 324 326 324 328 326 324 323 321 320 319 320 324 326 326 325 326 327 327 323 323 325 327 328 325 328 327 326 328 327 328 327 326 327 329 336
317 318 318 316 315 314 314 314 313 315 317 318 319 319 317 318 317 315 312 322 325 325 319 325 325 323 320 319 320 320 321 325 324 323 323 325 329 326 327 328 327 328 326 323 327 327 327 327 326 326 327 327 329 333
317 316 317 316 314 314 315 314 314 314 317 317 318 319 319 318 317 314 311 320 323 325 326 323 322 322 320 321 320 320 321 321 323 321 322 321 323 326 326 326 326 328 327 325 324 326 327 326 325 324 325 326 327 332
315 316 317 315 314 314 315 314 314 314 312 314 315 317 319 318 318 313 311 320 323 323 329 328 323 322 322 321 320 321 322 321 322 322 324 323 328 327 325 323 322 325 327 325 329 329 328 327 325 323 324 324 325 330
314 316 316 314 313 314 315 315 315 315 313 312 312 316 319 318 316 311 313 313 322 322 325 328 324 324 323 321 321 322 323 323 323 323 324 326 325 325 325 325 326 324 325 326 328 326 328 327 325 324 322 323 325 330
314 316 315 313 313 314 316 315 315 316 312 313 312 315 317 317 312 312 322 322 317 322 326 328 326 323 323 322 322 323 323 322 324 324 325 324 323 321 321 323 327 325 323 323 324 325 325 324 322 322 322 323 323 327
315 315 314 312 313 315 316 316 316 315 313 313 313 317 317 313 311 311 320 321 321 323 323 328 327 325 323 323 323 323 324 325 324 323 325 325 324 326 325 325 324 324 323 323 323 322 322 323 322 323 322 321 322 326
314 314 311 312 312 315 316 316 316 315 314 315 316 313 311 310 310 311 314 321 316 320 326 324 327 329 324 323 323 325 324 326 325 327 327 326 323 316 322 324 321 321 322 322 322 321 320 319 323 322 319 320 320 323
313 312 311 312 311 314 316 317 317 317 314 310 309 311 317 313 317 321 321 317 318 318 326 327 324 329 325 324 326 326 325 327 329 328 324 326 329 323 322 318 319 321 321 320 319 319 318 317 317 317 317 317 317 318
313 311 311 311 310 313 316 316 316 314 309 309 316 320 323 317 321 320 320 320 318 319 319 323 324 328 322 327 329 326 328 326 327 327 326 327 325 326 324 322 319 321 319 318 317 318 318 319 319 318 317 316 317 317
311 310 311 310 309 311 315 316 315 310 309 313 317 321 320 321 322 322 323 320 322 320 318 317 320 324 324 326 328 326 327 327 326 325 327 327 327 324 324 321 320 319 319 318 317 317 317 317 316 317 317 317 318 318
311 309 311 309 310 311 312 315 313 311 311 315 318 318 319 317 320 323 323 323 323 320 319 318 319 325 324 324 327 329 326 327 324 326 327 326 326 324 323 322 319 319 319 318 318 318 318 316 316 317 317 318 318 319
310 309 310 310 311 312 312 312 314 312 311 316 318 317 320 320 322 323 322 323 320 320 319 321 321 328 327 328 327 328 326 325 326 326 326 328 323 321 319 319 319 318 318 318 318 319 317 317 317 317 319 319 318 317
310 308 310 310 313 313 312 312 312 311 314 316 316 317 318 319 319 320 322 323 321 320 321 323 322 325 326 326 326 326 326 326 326 326 325 325 322 319 318 319 319 319 319 320 320 319 318 317 317 318 319 317 316 316
310 309 309 310 312 311 310 311 311 312 314 313 316 319 320 321 320 320 321 323 322 321 322 322 326 327 327 327 326 327 324 326 326 330 327 325 321 320 320 320 320 320 320 321 320 319 318 317 317 317 317 316 315 315
310 308 311 311 311 310 308 308 311 313 312 313 316 316 317 318 321 321 322 323 323 323 326 326 326 326 327 327 326 324 324 326 329 327 325 322 321 321 322 324 324 323 322 321 321 319 318 317 316 317 316 316 315 315
310 310 311 310 311 309 307 310 312 312 313 314 316 317 318 320 320 321 320 321 323 323 322 326 326 327 327 326 326 325 326 327 328 328 325 324 324 323 323 324 324 324 322 322 321 319 318 317 316 316 316 316 315 315
310 310 310 311 311 310 310 310 311 315 317 317 316 317 317 317 320 321 321 322 322 323 324 325 328 326 326 328 328 326 326 328 329 329 328 326 325 325 324 324 325 323 322 322 320 319 318 317 316 317 316 315 314 314
310 310 310 311 311 310 312 312 313 314 316 318 317 316 317 319 322 322 320 320 321 323 324 327 326 327 327 327 326 325 325 326 327 328 329 328 327 326 322 324 324 324 323 322 321 319 318 318 317 317 316 316 316 315
310 309 309 310 311 311 310 315 316 317 317 318 319 319 319 319 322 324 323 321 322 321 321 325 325 324 324 325 326 326 325 325 324 325 326 328 328 329 327 326 325 324 323 323 321 319 318 319 318 315 317 316 316 315
310 310 310 310 312 312 313 315 315 317 318 318 319 320 320 320 321 320 321 322 323 324 323 324 325 323 326 327 326 323 325 324 323 321 326 328 325 325 327 327 326 324 324 323 321 320 319 318 318 317 317 316 315 313
311 310 311 312 312 313 314 315 317 318 320 321 320 321 322 322 321 319 322 322 323 323 322 321 322 325 327 328 329 329 327 324 322 321 329 327 325 325 326 325 325 324 323 321 320 320 319 319 317 317 316 316 315 314
310 312 313 314 315 314 316 317 317 318 319 321 321 321 322 321 320 322 324 321 321 324 323 323 322 324 325 325 327 329 329 329 327 326 325 324 324 325 325 324 323 323 322 322 321 320 316 316 316 314 315 314 312 312
313 311 313 313 315 317 317 319 319 320 320 321 321 321 324 320 324 323 324 322 320 321 323 326 326 325 326 327 327 327 327 325 325 324 321 320 324 324 321 319 318 318 318 317 318 318 315 316 316 313 312 312 313 313
309 313 313 317 316 318 319 320 321 320 321 322 322 322 322 326 325 324 326 324 324 325 328 328 328 327 325 325 326 324 324 326 325 325 324 321 321 322 322 321 318 319 320 318 318 317 316 315 316 314 312 313 313 312
313 315 316 316 317 319 319 319 319 322 322 323 324 324 323 322 324 326 322 320 318 318 325 325 322 326 325 321 326 325 325 322 323 323 323 322 320 317 317 318 319 319 318 318 317 317 317 317 316 315 314 314 313 312
314 317 319 318 318 318 319 321 321 323 323 322 323 324 325 325 326 324 321 321 319 324 324 325 324 324 325 324 321 319 316 315 316 317 317 317 317 318 318 317 316 316 317 316 316 316 316 315 315 314 314 314 314 313
316 318 318 319 318 318 318 319 322 322 322 321 325 322 320 317 321 324 320 319 323 324 323 323 321 320 320 320 319 318 318 319 320 320 320 319 319 318 317 317 316 315 316 316 315 315 314 314 314 312 314 313 313 314
316 317 318 318 318 317 317 319 321 321 321 320 319 319 317 317 320 323 324 323 323 323 321 321 321 320 320 320 320 320 319 320 319 319 318 318 317 316 316 315 313 313 313 314 314 314 312 313 314 314 312 312 312 311
316 316 316 316 317 317 320 319 321 321 319 320 322 322 322 323 324 323 322 321 321 320 319 320 320 320 320 319 317 317 316 316 315 315 314 314 314 314 314 313 312 313 312 311 311 312 313 314 313 313 313 312 311 311
316 316 316 317 318 319 320 323 322 320 318 318 321 322 323 322 323 321 321 322 318 316 317 316 315 316 315 315 315 314 315 315 314 314 315 314 314 314 313 313 313 312 312 311 310 310 311 310 310 311 313 312 312 312
317 318 317 317 319 318 319 320 322 322 321 321 323 323 322 320 322 322 322 320 317 317 316 315 315 315 315 315 315 315 313 311 310 310 311 312 313 313 313 313 312 312 312 311 310 310 310 309 309 310 311 311 311 312
Wind_Speed
16 15 17 19 20 21 24 26 25 23 19 17 13 11 11 11 12 12 10 8 7 6 22 17 20 4 2 5 2 3 3 3 3 2 1 0 4 7 4 5 5 4 3 1 2 4 2 6 4 4 4 6 5 9
14 15 18 19 20 22 24 25 25 22 19 16 13 11 11 12 13 12 10 9 11 13 12 9 8 6 6 4 5 5 1 3 3 3 4 3 3 3 3 2 1 1 5 4 5 5 8 13 6 6 13 15 16 11
15 17 18 19 22 23 24 25 24 24 20 16 14 11 12 13 14 14 15 2 5 10 16 13 7 6 4 4 3 3 6 7 7 7 3 3 2 2 0 2 3 4 3 3 5 2 7 8 12 10 8 8 12 16
15 16 18 20 22 23 22 22 22 22 18 15 13 12 12 14 16 16 15 8 3 7 5 11 14 15 10 1 3 4 4 3 4 3 3 2 1 3 0 4 2 4 2 3 3 14 17 13 12 8 6 5 9 11
16 17 17 19 21 21 20 20 21 22 18 15 13 12 13 15 16 15 15 14 5 1 5 9 7 9 8 7 5 3 1 2 6 4 2 3 4 4 5 3 3 6 1 3 2 9 12 11 9 3 3 4 3 7
18 18 17 19 20 20 18 19 20 21 17 14 12 11 14 16 14 9 2 16 10 9 5 2 10 17 11 12 6 4 5 4 7 6 5 5 3 3 1 0 10 10 16 12 8 10 13 10 6 3 2 1 6 6
17 17 17 18 18 18 16 18 19 19 15 11 9 10 16 17 17 12 4 7 19 12 4 3 10 15 13 11 8 8 8 7 6 3 5 3 4 2 1 2 6 7 6 7 6 4 4 2 3 8 6 0 1 4
16 16 16 16 16 15 14 15 16 16 9 7 5 12 14 13 13 19 3 0 14 13 5 3 4 10 16 8 12 15 14 12 9 4 1 1 7 3 1 4 5 5 2 7 4 4 5 1 9 7 3 5 6 11
15 13 14 14 13 13 11 11 11 8 4 7 12 11 8 6 5 8 8 4 5 11 5 4 4 2 13 15 14 6 5 1 6 3 5 4 2 2 7 7 6 8 4 4 7 7 6 6 6 5 6 7 8 6
12 11 11 11 11 11 8 7 6 1 6 11 13 3 2 5 6 5 5 3 6 7 7 5 2 3 4 11 5 4 1 2 3 4 6 2 4 15 16 13 9 9 12 9 8 11 7 5 5 5 5 6 8 7
10 10 10 9 9 9 7 6 3 4 7 7 1 1 3 10 6 5 5 6 7 4 8 8 11 4 12 4 3 6 3 2 2 4 5 3 3 9 25 16 13 10 12 11 7 5 6 5 4 6 10 10 7 7
10 9 9 8 7 8 6 6 5 9 7 2 4 2 3 5 6 4 4 5 5 5 10 18 12 11 5 6 4 3 3 2 4 6 3 2 3 12 21 20 16 13 12 12 9 7 5 5 6 7 7 3 3 4
10 9 9 8 7 7 6 7 8 12 7 2 1 1 0 4 0 6 9 4 4 10 10 16 10 8 7 2 2 2 2 4 4 3 3 4 18 21 21 23 16 14 14 13 12 10 7 6 7 6 6 6 5 5
10 8 8 8 8 8 8 7 9 12 10 2 3 2 3 5 6 6 5 6 12 13 20 15 19 8 11 7 4 4 4 3 4 5 6 5 25 25 23 22 20 19 17 15 13 11 9 8 7 8 7 10 7 6
8 7 8 8 8 8 11 8 9 16 9 5 3 4 8 13 17 17 16 19 17 22 13 15 15 10 4 3 4 2 4 4 3 4 5 18 31 28 24 23 21 20 19 17 16 13 11 11 9 9 11 10 7 9
6 7 8 9 9 9 6 5 10 14 5 2 5 6 12 9 13 14 19 15 16 13 10 5 6 5 4 5 5 6 4 5 4 4 15 31 31 28 25 23 22 21 21 21 19 17 15 13 13 14 11 9 7 9
6 6 6 6 5 6 9 8 8 5 7 5 9 15 19 17 15 13 17 12 14 6 1 3 6 10 4 4 7 6 8 3 1 18 26 28 28 26 23 19 19 20 22 23 21 20 19 17 14 20 17 12 10 10
7 6 7 5 7 10 13 6 4 7 8 12 8 15 12 18 24 16 17 16 9 7 6 4 13 5 4 6 6 7 15 12 16 22 23 24 22 19 18 16 17 19 21 24 21 22 21 20 18 21 18 17 17 16
9 7 9 7 9 7 5 6 5 4 12 11 20 24 18 18 20 22 11 14 6 11 7 7 6 5 5 3 6 9 10 5 18 15 16 17 17 17 16 16 19 20 22 23 22 25 25 24 22 21 23 20 20 19
13 8 13 11 9 3 4 6 8 6 5 8 19 24 18 19 21 20 7 8 8 6 2 4 4 1 9 12 10 8 6 7 6 12 14 14 15 15 16 20 22 22 22 21 23 23 23 25 22 23 23 19 20 19
10 8 10 12 14 6 5 4 6 9 9 11 10 16 21 17 17 16 17 8 4 3 3 19 29 9 3 9 6 6 3 6 6 9 11 14 6 20 17 19 20 19 22 24 26 28 28 23 28 27 22 20 27 17
8 7 5 10 6 5 8 9 7 7 4 10 9 7 8 9 14 16 16 8 10 22 27 10 3 2 3 2 6 4 10 9 17 15 13 16 18 17 21 23 24 19 20 27 31 32 30 24 19 30 23 17 16 19
12 7 4 7 7 6 8 9 5 5 3 2 3 3 4 4 12 17 8 19 25 13 11 12 9 9 3 2 7 8 7 6 7 11 14 15 16 11 13 17 17 17 21 15 7 15 15 13 26 23 16 22 24 23
5 3 4 5 8 5 6 6 7 6 4 5 3 4 3 5 7 2 4 14 16 15 14 13 12 10 5 4 3 6 12 9 5 7 8 11 15 14 12 11 11 11 13 16 16 19 21 14 18 16 17 24 26 21
4 5 5 7 6 6 3 3 8 7 9 8 7 4 2 2 2 4 5 6 6 10 14 10 11 3 2 2 4 4 1 3 4 4 4 4 4 6 6 2 2 4 5 7 9 20 24 14 16 20 24 23 21 20
2 4 5 5 6 4 5 3 4 6 7 6 1 1 6 3 4 2 3 14 16 22 14 10 9 9 11 9 3 9 8 7 3 4 6 6 6 6 6 3 4 5 4 6 7 15 20 24 18 24 26 25 23 20
3 5 10 9 7 6 5 6 4 3 4 1 2 3 3 3 7 4 7 8 3 22 5 3 7 6 7 10 9 5 2 3 2 3 5 5 4 6 4 2 1 3 8 14 14 6 11 18 14 5 3 11 17 16
6 6 5 9 14 16 7 2 2 4 3 5 4 5 5 5 3 2 6 5 4 11 12 13 13 16 14 14 9 7 13 14 14 13 12 10 6 2 2 4 2 2 6 4 7 13 13 15 11 11 13 6 1 7
7 10 13 11 11 6 5 4 2 2 2 3 1 2 3 3 2 4 3 4 4 10 10 7 10 10 11 12 13 12 11 9 8 6 4 5 4 4 4 6 1 1 3 2 3 6 8 10 15 10 10 13 15 21
14 14 11 10 11 4 2 3 5 2 4 8 5 4 14 13 9 5 3 9 10 5 6 7 7 10 8 8 8 6 0 3 3 4 1 5 8 6 7 5 6 6 8 3 5 6 3 4 5 6 3 7 8 21
9 8 11 9 4 5 11 9 11 9 5 5 3 6 6 9 6 1 8 7 7 6 5 6 3 12 6 7 7 12 16 10 7 4 2 14 14 13 7 3 3 3 4 6 5 3 6 3 5 6 5 7 17 16
7 7 5 4 7 10 16 10 6 4 5 6 1 2 4 11 8 5 2 2 2 2 4 9 15 12 10 9 7 8 6 5 3 1 1 2 7 5 3 1 2 4 3 5 2 1 1 1 2 5 19 9 10 12
7 10 5 5 1 6 8 7 9 6 6 2 3 2 3 3 1 2 1 4 9 11 11 10 6 4 4 5 2 2 6 9 7 3 2 5 5 2 2 6 6 4 5 4 4 4 3 0 2 3 3 3 7 9
Wind_Direction
300 305 306 307 309 312 315 316 315 311 305 298 297 283 263 245 241 243 216 202 235 274 281 301 314 354 74 27 43 84 353 255 284 231 246 355 131 212 200 153 178 167 120 1 15 37 339 277 339 79 245 288 44 101
300 300 305 305 310 314 317 317 317 312 304 291 286 273 258 242 234 232 212 186 210 242 259 298 342 75 70 39 17 357 67 209 349 41 1 2 32 129 195 307 273 144 185 161 150 210 218 195 169 74 38 31 21 81
291 298 302 306 311 315 317 316 314 308 299 287 275 264 252 239 227 225 219 205 214 245 276 277 268 255 243 249 338 44 346 9 60 57 6 283 56 76 83 127 315 63 170 89 126 175 316 171 120 94 66 40 29 57
289 297 300 307 312 315 317 317 322 317 299 287 272 255 244 233 222 222 226 195 277 289 254 272 284 213 208 23 194 266 332 351 319 0 271 239 280 354 130 155 126 165 141 118 25 171 190 101 100 79 84 79 42 72
286 292 298 305 309 312 317 319 320 324 307 293 273 247 231 222 217 223 227 195 211 312 321 304 312 172 198 232 154 200 260 197 275 226 239 244 84 28 5 43 335 82 358 117 152 125 120 129 131 126 76 68 51 122
285 290 295 305 307 311 314 318 320 321 309 292 270 231 212 207 204 209 248 218 205 248 264 254 254 265 208 167 174 197 229 214 261 287 315 94 101 127 93 98 25 80 95 110 101 103 121 144 136 171 304 257 65 151
280 284 295 302 305 311 314 319 321 318 307 289 266 208 195 193 195 185 182 163 201 222 244 41 331 223 206 166 185 201 225 231 248 311 272 124 112 109 80 219 52 16 103 110 131 134 152 255 232 200 168 291 296 158
273 283 290 297 303 310 314 321 324 323 304 274 224 177 180 191 206 216 129 69 186 195 256 161 210 250 201 187 203 216 205 218 197 215 178 119 131 51 252 269 308 259 223 159 166 222 198 252 173 133 156 244 264 193
272 277 288 295 303 310 311 323 330 341 356 123 133 144 156 192 204 228 233 266 227 212 267 248 137 320 187 211 205 178 198 268 166 172 241 210 73 203 216 214 241 263 195 183 184 206 208 244 208 212 234 233 257 272
265 277 287 294 302 308 301 313 323 78 138 133 132 119 193 201 169 183 197 226 193 218 236 252 247 192 192 228 194 117 90 249 186 229 159 177 220 231 213 200 207 247 188 203 215 196 181 231 260 254 256 250 257 311
257 269 282 293 301 310 289 286 285 189 166 156 357 254 27 173 168 190 221 201 203 228 218 215 248 131 159 239 170 156 182 210 248 230 152 234 250 228 220 203 203 192 185 198 214 181 187 201 227 249 243 250 255 267
250 261 273 286 298 313 279 251 238 196 181 189 312 313 140 189 222 218 204 212 185 220 194 193 201 189 194 315 107 160 166 192 255 166 171 247 224 166 177 185 185 189 193 200 207 216 233 248 249 247 257 270 226 242
244 258 268 279 291 292 304 243 227 213 193 260 344 11 356 250 276 225 212 188 205 174 196 180 193 157 147 341 65 167 205 208 238 204 217 208 159 166 175 179 181 190 196 201 202 203 214 227 226 226 225 229 201 192
244 258 266 266 277 280 285 277 226 213 195 220 170 194 238 220 215 228 240 228 220 239 208 203 184 160 172 179 144 196 221 212 219 204 214 175 170 172 176 182 183 190 195 200 201 198 203 213 215 213 213 200 192 195
247 257 267 263 265 274 286 262 210 181 175 204 205 230 225 246 289 294 296 295 254 231 229 221 187 184 151 180 197 177 225 209 227 225 226 185 175 174 179 187 193 192 195 201 201 198 201 203 208 207 203 214 216 224
252 262 267 257 267 286 259 218 186 176 179 217 239 248 255 267 278 277 282 286 269 284 237 217 191 189 161 160 202 196 214 216 226 172 147 164 171 178 182 191 199 203 202 202 202 199 202 200 204 202 197 197 205 200
238 239 255 246 213 188 162 153 153 174 190 216 235 242 259 286 287 285 298 299 319 196 359 330 150 219 162 198 212 194 230 219 131 157 157 168 175 183 189 198 208 210 207 202 198 199 202 200 208 202 189 194 204 202
215 239 224 196 193 162 175 181 212 201 223 235 253 254 244 244 241 236 256 273 293 221 228 253 295 152 182 197 212 206 108 102 128 149 165 172 176 184 196 206 212 210 207 201 200 203 202 198 206 207 209 202 201 202
216 220 190 181 166 166 202 213 241 265 227 222 245 249 254 254 243 240 189 179 254 190 233 300 256 190 181 127 89 105 59 96 149 155 166 181 193 200 202 208 210 210 211 208 207 206 204 203 206 209 202 205 212 213
208 209 195 199 192 217 245 218 204 246 267 236 234 258 259 273 229 213 231 270 238 194 238 230 252 152 89 101 105 121 110 60 81 143 179 205 217 219 215 211 215 218 212 215 216 211 205 210 209 209 209 205 220 210
207 216 217 213 219 226 282 278 237 246 259 266 265 257 246 259 184 176 175 165 119 46 290 248 216 250 150 126 145 144 139 329 286 299 337 313 262 232 244 234 225 221 220 214 213 215 214 218 214 207 210 222 210 209
161 174 197 189 199 227 250 241 229 287 282 263 293 288 265 260 261 199 193 178 206 210 210 234 296 6 121 131 165 261 266 270 303 250 255 284 277 251 237 232 224 221 235 223 214 215 212 224 227 210 208 202 225 202
169 184 242 187 210 226 259 238 237 235 265 298 314 235 247 247 261 234 188 190 229 216 225 240 253 310 230 173 145 183 244 306 274 214 235 254 272 267 223 213 214 238 242 228 214 192 180 253 214 227 225 206 213 198
178 226 221 210 214 239 235 214 218 244 239 148 242 296 269 232 249 289 261 219 223 204 203 224 238 232 213 228 221 118 136 157 181 210 256 263 268 246 278 252 237 253 267 261 246 217 185 196 225 231 216 203 197 198
206 225 207 233 238 241 221 233 236 239 242 263 269 263 208 0 301 195 223 248 260 210 216 191 162 151 107 74 88 82 1 323 258 240 204 214 175 193 198 196 340 294 279 228 218 196 187 211 230 225 222 207 202 207
216 222 196 232 215 220 210 240 204 246 260 267 243 230 19 26 342 280 52 25 45 11 44 86 80 52 43 45 50 148 100 76 115 139 138 144 159 156 136 140 256 277 262 210 225 222 235 223 297 236 216 209 203 211
249 253 225 240 254 251 255 66 1 15 330 233 311 25 28 149 218 108 114 83 116 241 331 83 70 68 120 130 138 133 201 282 202 147 185 195 118 80 83 97 258 228 212 216 217 271 268 257 258 308 165 198 212 222
252 269 245 235 240 261 290 238 224 164 192 251 228 171 175 329 25 75 167 164 147 97 97 105 96 96 121 123 117 110 110 110 110 92 96 115 132 105 127 106 34 152 162 173 208 223 245 252 227 219 234 226 179 193
239 229 220 263 270 267 280 248 150 55 313 308 48 39 298 273 254 262 70 126 136 124 112 115 101 102 103 126 127 114 128 143 133 130 114 127 155 169 173 190 289 301 226 230 203 244 279 283 264 232 224 249 237 248
251 246 247 261 256 223 223 31 88 95 74 72 73 272 254 240 187 162 224 151 155 155 153 134 146 139 127 145 158 187 45 184 187 75 24 183 162 147 144 124 91 79 63 45 298 258 211 166 194 205 239 257 208 188
218 236 221 220 261 225 143 128 124 127 102 88 219 267 252 226 194 116 147 140 152 151 170 201 195 166 106 83 82 83 80 94 91 80 46 41 134 135 132 72 85 100 34 19 1 303 171 196 192 210 205 180 181 187
213 216 205 212 243 143 158 154 137 106 61 62 315 286 46 82 84 105 148 41 150 132 111 80 107 92 81 98 90 80 76 38 23 93 150 80 70 108 46 148 133 115 27 355 328 296 192 329 274 262 222 217 222 236
263 287 249 151 275 227 188 171 179 125 109 162 301 165 154 113 183 168 174 28 41 119 110 104 103 115 120 46 40 27 23 25 41 28 284 265 264 245 119 111 100 106 60 31 356 313 303 257 300 290 255 233 208 221